Location: ?????????
(53.2086°N, 54.0693°E)
Time: 13:48:49
(UTC+00:00)

Meteor 1-18 Rocket - Pass Details

Date: 08 December 2019
Orbit: 836 x 909 km, 81.2° (Epoch: 18 January)

Event Time Altitude Azimuth Distance (km) Brightness Sun altitude
Rises 15:08:07 0° 184° (S) 3,465 7.5 -25.8°
Reaches altitude 10° 15:10:35 10° 182° (S) 2,519 6.7 -26.2°
Enters shadow 15:15:15 58° 157° (SSE) 1,003 4.4 -26.8°
